Pittsburgh, PA

8:06 AM EDT on October 18, 2017 (GMT -0400)
Pittsburgh International

Weather History for KPIT - July, 2014

Change the Weather History Date:

Tuesday, July 29, 2014

  Actual Average Record
Temperature  
Mean Temperature 60 °F 73 °F  
Max Temperature 69 °F 82 °F 96 °F (1901)
Min Temperature 51 °F 63 °F 51 °F (2014)
Degree Days  
Heating Degree Days 5 0  
Month to date heating degree days 9 0  
Since 1 June heating degree days 18 38  
Since 1 July heating degree days 9 0  
Cooling Degree Days 0 8  
Month to date cooling degree days 185 229  
Year to date cooling degree days 444 431  
Since 1 June cooling degree days 370 379  
Growing Degree Days 10 (Base 50)    
Moisture  
Dew Point 51 °F    
Average Humidity 74    
Maximum Humidity 96    
Minimum Humidity 52    
Precipitation  
Precipitation 0.00 in 0.11 in 1.48 in (1992)
Month to date precipitation 5.05 3.59  
Year to date precipitation 24.19 22.99  
Snow  
Snow 0.00 in 0.00 in 0.00 in (2002)
Month to date snowfall 0.0 0.0  
Since 1 July snowfall 0.0 0.0  
Snow Depth 0.00 in    
Sea Level Pressure  
Sea Level Pressure 30.02 in    
Wind  
Wind Speed 5 mph (West)    
Max Wind Speed 10 mph    
Max Gust Speed 21 mph    
Visibility 10 miles    
Events      
T = Trace of Precipitation, MM = Missing Value Source: NWS Daily Summary

Daily Weather History Graph

Daily Weather History Graph

Search for Another Location

Airport or City:

Trip Planner

Search our weather history database for the weather conditions in past years. The results will help you decide how hot, cold, wet, or windy it might be!

Date:

Astronomy

Jul. 29, 2014 Rise Set
Actual Time 6:15 AM EDT 8:38 PM EDT
Civil Twilight 5:44 AM EDT 9:09 PM EDT
Nautical Twilight 5:06 AM EDT 9:47 PM EDT
Astronomical Twilight 4:23 AM EDT 10:29 PM EDT
Moon 8:51 AM EDT (7/29) 9:49 PM EDT (7/29)
Length of Visible Light 15h 25m
Length of Day
14h 23m
Waxing Crescent, 7% of the Moon is Illuminated
Jul 29
Waxing Crescent
Aug 3
First Quarter
Aug 10
Full
Aug 17
Last Quarter
Aug 25
New

Hourly Weather History & Observations

Time (EDT) Temp. Dew Point Humidity Pressure Visibility Wind Dir Wind Speed Gust Speed Precip Events Conditions
12:51 AM 55.0 °F 52.0 °F 89% 29.97 in 10.0 mi West 3.5 mph - N/A   Partly Cloudy
1:51 AM 55.0 °F 52.0 °F 89% 29.97 in 10.0 mi West 4.6 mph - N/A   Mostly Cloudy
2:51 AM 54.0 °F 51.1 °F 90% 29.97 in 10.0 mi WSW 4.6 mph - N/A   Partly Cloudy
3:51 AM 52.0 °F 50.0 °F 93% 29.97 in 10.0 mi West 6.9 mph - N/A   Scattered Clouds
4:51 AM 52.0 °F 50.0 °F 93% 29.96 in 10.0 mi West 8.1 mph - N/A   Scattered Clouds
5:51 AM 52.0 °F 48.9 °F 89% 29.98 in 10.0 mi WNW 6.9 mph - N/A   Mostly Cloudy
6:51 AM 52.0 °F 48.9 °F 89% 29.99 in 10.0 mi West 3.5 mph - N/A   Overcast
7:51 AM 53.6 °F 50.0 °F 88% 29.98 in 10.0 mi West 3.5 mph - N/A   Overcast
8:51 AM 55.0 °F 51.1 °F 86% 30.02 in 10.0 mi WSW 5.8 mph - N/A   Mostly Cloudy
9:51 AM 57.9 °F 51.1 °F 78% 30.02 in 10.0 mi WNW 5.8 mph - N/A   Overcast
10:51 AM 61.0 °F 53.1 °F 75% 30.03 in 10.0 mi NW 9.2 mph - N/A   Overcast
11:28 AM 62.1 °F 52.0 °F 70% 30.02 in 10.0 mi NW 9.2 mph - N/A   Overcast
11:51 AM 63.0 °F 52.0 °F 67% 30.04 in 10.0 mi West 9.2 mph - N/A   Overcast
12:51 PM 64.0 °F 48.9 °F 58% 30.04 in 10.0 mi NNW 3.5 mph - N/A   Overcast
1:51 PM 64.0 °F 51.1 °F 63% 30.03 in 10.0 mi NW 9.2 mph - N/A   Overcast
2:51 PM 66.0 °F 48.0 °F 52% 30.03 in 10.0 mi NW 5.8 mph - N/A   Overcast
3:51 PM 66.0 °F 50.0 °F 56% 30.03 in 10.0 mi WNW 6.9 mph - 0.00 in   Overcast
4:51 PM 66.9 °F 50.0 °F 54% 30.03 in 10.0 mi Calm Calm - 0.00 in   Overcast
5:51 PM 66.9 °F 51.1 °F 57% 30.04 in 10.0 mi North 5.8 mph - N/A   Mostly Cloudy
6:51 PM 66.0 °F 51.1 °F 59% 30.04 in 10.0 mi WSW 5.8 mph - N/A   Mostly Cloudy
7:51 PM 64.9 °F 51.1 °F 61% 30.04 in 10.0 mi WSW 4.6 mph - N/A   Partly Cloudy
8:51 PM 62.1 °F 52.0 °F 70% 30.05 in 10.0 mi SW 4.6 mph - N/A   Partly Cloudy
9:51 PM 60.1 °F 52.0 °F 75% 30.06 in 10.0 mi SW 3.5 mph - N/A   Clear
10:51 PM 59.0 °F 51.8 °F 77% 30.04 in 10.0 mi SW 3.5 mph - N/A   Clear
11:51 PM 57.0 °F 52.0 °F 83% 30.06 in 10.0 mi Calm Calm - N/A   Clear